Location: La Brionne
(46.1728°N, 1.7849°E)
Time: 11:22:40
(UTC+00:00)

USA 267 - Pass Details

Date: 24 October 2021
Orbit: 1101 x 1107 km, 123.0° (Epoch: 25 November)

Event Time Altitude Azimuth Distance (km) Brightness Sun altitude
Rises 17:54:42 0° 135° (SE) 3,907 5.8 -11.7°
Reaches altitude 10° 17:57:11 10° 138° (SE) 2,951 5.2 -12.1°
Maximum altitude 18:03:41 69° 221° (SW) 1,169 3.6 -13.2°
Drops below altitude 10° 18:10:13 10° 305° (NW) 2,963 6.3 -14.4°
Sets 18:12:43 0° 308° (NW) 3,924 7.0 -14.8°
